Content
SEND FEEDBACK

Daily
Averages
Monthly
Summary
United States of America

AGANA, GUAM


Home > North America > United States > Guam
Elevation: 74 meters     Latitude: 13 29N     Longitude: 144 48E

WEATHER
 
SELECT A DAY
Number of Records: 208,919;   Date Range: 1/1/95 - 7/23/14
 
SHARE

PRINT THIS DATA

[ ← Previous Day ]
WEATHER ALMANAC - 5 MARCH, 2013
[ Next Day → ]
[ °F ]   °C
Weather ElementAverageHighLow
Temperature28.7 °C31.1 °C (1:54 pm)27.2 °C (4:54 am)
Dewpoint23.9 °C26 °C (12:27 pm)22.2 °C (3:54 pm)
Humidity75.7 %89 % (12:27 pm)61 % (2:54 pm)
Barometer1012.9 hPa1014.2 hPa (11:01 am)1011.2 hPa (3:54 am)
Wind Speed16.3 km/h25.9 km/h (12:19 pm)
Wind Gust35.2 km/h (12:19 pm)
Weather ElementAverage
Visibility15.6 km
Wind DirectionENE (79.2 °)

Weather ElementTotal
Precipitation---
Cooling Degree Days10.8 (Base 18.3)
Growing Degree Days19.2 (Base 10)
Averaged from 26 records on 5 March, 2013
WEATHER CONDITIONS BREAKOUT
WIND DIRECTION BREAKOUT
WEATHER BY HOUR - 5 MARCH, 2013
[ °F ]   °C
Local TimeTemperatureDewpointHumidityBarometerVisibilityWind DirectionWind SpeedGust SpeedPrecipitationEventsConditions
1:54 AM27.8 °C25 °C85 %1011.9 hPa16.1 kmENE (70°)11.1 km/hOvercast
2:54 AM27.8 °C24.4 °C82 %1011.5 hPa16.1 kmEast (80°)13 km/hOvercast
3:54 AM27.8 °C24.4 °C82 %1011.2 hPa16.1 kmEast (80°)18.5 km/hClear
4:54 AM27.2 °C24.4 °C85 %1011.2 hPa16.1 kmEast (80°)13 km/hClear
5:54 AM27.2 °C24.4 °C85 %1011.5 hPa16.1 kmENE (60°)9.3 km/hMostly Cloudy
6:54 AM27.2 °C23.9 °C82 %1011.9 hPa16.1 kmENE (70°)14.8 km/hClear
7:54 AM28.3 °C24.4 °C79 %1012.9 hPa16.1 kmENE (70°)16.7 km/hScattered Clouds
8:54 AM28.7 °C24.7 °C79 %1013.2 hPa16.1 kmENE (60°)16.7 km/hPartly Cloudy
9:54 AM29.4 °C24.8 °C76 %1013.9 hPa16.1 kmENE (60°)18.5 km/h29.6 km/hMostly Cloudy
10:54 AM29.7 °C24.9 °C75 %1013.5 hPa16.1 kmNE (50°)24.1 km/hMostly Cloudy
11:01 AM30 °C25 °C74 %1014.2 hPa16.1 kmEast (80°)20.4 km/hMostly Cloudy
11:54 AM30.2 °C24.7 °C72 %1012.9 hPa16.1 kmEast (80°)20.4 km/hMostly Cloudy
12:19 PM29 °C24 °C74 %1013.9 hPa9.7 kmESE (110°)25.9 km/h35.2 km/h0 mmRainLight Rain
12:27 PM28 °C26 °C89 %1013.9 hPa8 kmEast (100°)18.5 km/h0 mmRainLight Rain
12:54 PM29.4 °C23.3 °C69 %1012.5 hPa16.1 kmEast (90°)16.7 km/h0 mmMostly Cloudy
1:54 PM31.1 °C23.9 °C65 %1011.9 hPa16.1 kmEast (100°)22.2 km/h33.3 km/hScattered Clouds
2:54 PM31.1 °C22.8 °C61 %1011.5 hPa16.1 kmEast (100°)20.4 km/hPartly Cloudy
3:54 PM30.6 °C22.2 °C61 %1011.5 hPa16.1 kmEast (80°)24.1 km/hScattered Clouds
4:54 PM29.4 °C23.3 °C69 %1011.9 hPa16.1 kmEast (100°)18.5 km/hOvercast
5:54 PM28.9 °C23.3 °C72 %1012.2 hPa16.1 kmEast (90°)14.8 km/h0 mmMostly Cloudy
6:54 PM28.3 °C23.3 °C74 %1012.9 hPa16.1 kmEast (90°)9.3 km/hPartly Cloudy
7:54 PM28.3 °C22.8 °C72 %1013.5 hPa16.1 kmEast (80°)13 km/hOvercast
8:54 PM27.8 °C22.8 °C74 %1014.2 hPa16.1 kmEast (80°)11.1 km/hClear
9:54 PM27.8 °C23.3 °C76 %1014.2 hPa16.1 kmENE (70°)11.1 km/hScattered Clouds
10:54 PM27.2 °C23.3 °C79 %1014.2 hPa16.1 kmNE (50°)9.3 km/hScattered Clouds
11:54 PM27.2 °C22.8 °C77 %1013.9 hPa16.1 kmEast (80°)11.1 km/hClear
Hourly data recorded from PGUM, located 0 kilometers away from Agana, Guam







STORIES FROM OUR PARTNERS